TimeEDT,TemperatureF,Dew PointF,Humidity,Sea Level PressureIn,VisibilityMPH,Wind Direction,Wind SpeedMPH,Gust SpeedMPH,PrecipitationIn,Events,Conditions,WindDirDegrees,DateUTC
12:53 AM,50.0,41.0,71,29.94,10.0,SW,4.6,-,N/A,,Clear,220,2012-10-10 04:53:00
1:53 AM,50.0,42.1,74,29.93,10.0,SSW,5.8,-,N/A,,Mostly Cloudy,200,2012-10-10 05:53:00
2:53 AM,53.1,43.0,69,29.93,10.0,SW,6.9,-,N/A,,Overcast,220,2012-10-10 06:53:00
3:53 AM,53.1,43.0,69,29.93,10.0,WSW,8.1,-,N/A,,Overcast,250,2012-10-10 07:53:00
4:53 AM,51.1,44.1,77,29.94,10.0,WNW,10.4,-,N/A,,Unknown,290,2012-10-10 08:53:00
5:10 AM,51.8,44.6,76,29.96,10.0,NW,10.4,19.6,N/A,,Overcast,320,2012-10-10 09:10:00
5:53 AM,46.9,41.0,80,29.99,9.0,NW,10.4,18.4,0.00,Rain,Light Rain,310,2012-10-10 09:53:00
6:03 AM,46.4,42.8,87,30.00,9.0,NW,6.9,-,0.00,Rain,Light Rain,310,2012-10-10 10:03:00
6:53 AM,46.0,39.9,79,30.03,10.0,NW,8.1,-,0.00,,Overcast,320,2012-10-10 10:53:00
7:40 AM,44.6,37.4,76,30.04,10.0,NW,8.1,-,N/A,,Mostly Cloudy,310,2012-10-10 11:40:00
7:53 AM,45.0,37.9,76,30.05,10.0,NW,8.1,-,N/A,,Overcast,310,2012-10-10 11:53:00
8:53 AM,45.0,37.0,74,30.09,10.0,WNW,8.1,17.3,N/A,,Overcast,300,2012-10-10 12:53:00
9:53 AM,46.9,37.0,68,30.11,10.0,WNW,12.7,18.4,N/A,,Scattered Clouds,290,2012-10-10 13:53:00
10:53 AM,48.9,37.0,64,30.13,10.0,West,10.4,-,N/A,,Scattered Clouds,270,2012-10-10 14:53:00
11:53 AM,48.9,34.0,56,30.15,10.0,WNW,11.5,17.3,N/A,,Scattered Clouds,300,2012-10-10 15:53:00
12:53 PM,51.1,34.0,52,30.16,10.0,NW,10.4,20.7,N/A,,Scattered Clouds,310,2012-10-10 16:53:00
1:53 PM,50.0,30.9,48,30.17,10.0,WNW,10.4,19.6,N/A,,Partly Cloudy,290,2012-10-10 17:53:00
2:53 PM,52.0,28.9,41,30.16,10.0,WNW,11.5,18.4,N/A,,Clear,300,2012-10-10 18:53:00
3:53 PM,53.1,27.0,37,30.16,10.0,WNW,13.8,23.0,N/A,,Clear,290,2012-10-10 19:53:00
4:53 PM,53.1,26.1,35,30.17,10.0,NNW,8.1,-,N/A,,Clear,330,2012-10-10 20:53:00
5:53 PM,52.0,24.1,34,30.18,10.0,North,8.1,-,N/A,,Clear,350,2012-10-10 21:53:00
6:53 PM,50.0,25.0,38,30.19,10.0,Variable,3.5,-,N/A,,Clear,0,2012-10-10 22:53:00
7:53 PM,42.1,30.9,65,30.22,10.0,Calm,Calm,-,N/A,,Clear,0,2012-10-10 23:53:00
8:53 PM,39.0,30.9,73,30.24,10.0,Calm,Calm,-,N/A,,Clear,0,2012-10-11 00:53:00
9:53 PM,36.0,32.0,86,30.25,10.0,Calm,Calm,-,N/A,,Clear,0,2012-10-11 01:53:00
10:53 PM,34.0,30.9,89,30.25,10.0,Calm,Calm,-,N/A,,Clear,0,2012-10-11 02:53:00
11:53 PM,33.1,30.9,92,30.26,10.0,Calm,Calm,-,N/A,,Clear,0,2012-10-11 03:53:00